Precipitable_Water
1.29 1.27 1.21 1.27 1.30 1.31 1.34 1.37 1.42 1.46 1.51 1.58 1.64 1.57 1.50 1.54 1.49 1.39 1.32 1.25 1.28 1.22 1.17 1.20 1.26 1.32 1.40 1.47 1.48 1.45 1.44 1.42 1.42 1.43 1.46 1.49 1.53 1.54 1.52 1.52 1.59 1.68 1.72
1.23 1.26 1.19 1.29 1.32 1.28 1.25 1.29 1.34 1.39 1.43 1.52 1.56 1.57 1.57 1.61 1.54 1.37 1.36 1.34 1.36 1.25 1.20 1.17 1.18 1.20 1.24 1.31 1.34 1.34 1.35 1.36 1.33 1.35 1.36 1.40 1.42 1.47 1.49 1.52 1.55 1.63 1.69
1.05 1.13 1.15 1.18 1.26 1.24 1.28 1.28 1.28 1.32 1.37 1.43 1.49 1.49 1.49 1.55 1.70 1.40 1.36 1.38 1.37 1.31 1.29 1.26 1.19 1.16 1.21 1.24 1.19 1.17 1.23 1.28 1.29 1.29 1.30 1.33 1.37 1.40 1.48 1.51 1.53 1.59 1.66
1.00 1.03 1.10 1.17 1.24 1.23 1.25 1.30 1.29 1.32 1.33 1.33 1.36 1.44 1.48 1.54 1.52 1.50 1.40 1.33 1.32 1.30 1.30 1.29 1.26 1.18 1.19 1.23 1.16 1.15 1.17 1.20 1.22 1.22 1.22 1.26 1.30 1.38 1.45 1.48 1.51 1.55 1.57
0.96 1.03 1.09 1.17 1.22 1.19 1.20 1.26 1.29 1.30 1.32 1.35 1.35 1.37 1.44 1.42 1.48 1.51 1.45 1.31 1.21 1.25 1.28 1.28 1.25 1.21 1.16 1.21 1.20 1.21 1.18 1.15 1.16 1.17 1.22 1.24 1.28 1.34 1.42 1.47 1.53 1.60 1.60
0.94 1.01 1.08 1.11 1.12 1.11 1.14 1.17 1.21 1.22 1.22 1.22 1.30 1.31 1.38 1.45 1.50 1.54 1.49 1.40 1.38 1.29 1.26 1.29 1.30 1.26 1.21 1.15 1.18 1.18 1.20 1.14 1.07 1.06 1.07 1.20 1.28 1.37 1.43 1.47 1.57 1.56 1.60
0.86 0.97 1.03 1.06 1.05 1.04 1.06 1.08 1.10 1.14 1.15 1.18 1.19 1.23 1.29 1.35 1.37 1.44 1.46 1.36 1.31 1.28 1.27 1.27 1.26 1.27 1.27 1.21 1.19 1.17 1.16 1.17 1.12 1.04 1.07 1.10 1.21 1.41 1.47 1.50 1.56 1.64 1.70
0.82 0.88 0.94 0.98 1.01 1.02 1.04 1.06 1.06 1.08 1.08 1.11 1.15 1.19 1.23 1.25 1.27 1.33 1.39 1.32 1.33 1.32 1.36 1.40 1.39 1.36 1.32 1.31 1.27 1.21 1.17 1.18 1.20 1.10 1.04 1.09 1.17 1.26 1.40 1.48 1.57 1.65 1.71
0.83 0.81 0.87 0.91 0.96 0.98 1.02 1.04 1.04 1.05 1.07 1.05 1.07 1.11 1.17 1.23 1.24 1.26 1.35 1.40 1.40 1.46 1.47 1.48 1.49 1.53 1.51 1.46 1.36 1.30 1.18 1.22 1.19 1.21 1.16 1.06 1.13 1.20 1.29 1.31 1.47 1.57 1.65
0.81 0.81 0.80 0.85 0.88 0.90 0.94 0.98 1.00 1.00 1.03 1.06 1.07 1.10 1.13 1.17 1.19 1.31 1.35 1.36 1.37 1.41 1.40 1.44 1.50 1.54 1.52 1.55 1.51 1.44 1.31 1.26 1.32 1.29 1.27 1.29 1.23 1.10 1.14 1.20 1.19 1.26 1.46
0.75 0.78 0.81 0.79 0.82 0.84 0.84 0.90 0.95 1.01 1.03 1.06 1.07 1.09 1.12 1.13 1.16 1.27 1.29 1.32 1.37 1.36 1.38 1.36 1.38 1.42 1.45 1.48 1.46 1.48 1.38 1.34 1.33 1.34 1.35 1.37 1.38 1.33 1.19 1.14 1.25 1.20 1.15
0.61 0.71 0.79 0.83 0.83 0.83 0.86 0.89 0.93 0.98 1.01 1.02 1.06 1.08 1.10 1.12 1.11 1.20 1.26 1.29 1.30 1.29 1.28 1.26 1.24 1.30 1.38 1.41 1.39 1.41 1.45 1.46 1.39 1.39 1.42 1.45 1.46 1.48 1.43 1.27 1.09 1.20 1.35
0.63 0.70 0.73 0.80 0.82 0.82 0.82 0.87 0.90 0.92 0.97 1.01 1.03 1.05 1.06 1.08 1.11 1.14 1.19 1.25 1.25 1.24 1.22 1.22 1.24 1.30 1.34 1.32 1.32 1.36 1.37 1.40 1.46 1.47 1.47 1.53 1.54 1.55 1.49 1.49 1.42 1.31 1.08
0.65 0.72 0.76 0.79 0.80 0.83 0.84 0.85 0.88 0.89 0.92 0.94 1.00 1.04 1.03 1.04 1.05 1.07 1.11 1.15 1.20 1.21 1.15 1.15 1.15 1.21 1.30 1.32 1.30 1.30 1.28 1.29 1.39 1.46 1.49 1.51 1.52 1.52 1.51 1.52 1.49 1.52 1.49
0.66 0.74 0.77 0.83 0.83 0.84 0.82 0.84 0.86 0.87 0.87 0.89 0.92 0.96 1.03 1.00 0.99 1.04 1.07 1.10 1.11 1.11 1.08 1.05 1.11 1.13 1.13 1.16 1.22 1.21 1.16 1.17 1.20 1.26 1.31 1.43 1.46 1.47 1.49 1.47 1.45 1.41 1.48
0.67 0.74 0.83 0.84 0.85 0.83 0.80 0.81 0.83 0.85 0.85 0.83 0.81 0.84 0.90 0.90 0.86 0.87 0.91 0.94 0.98 1.01 1.02 1.01 1.04 1.04 1.08 1.08 1.09 1.10 1.11 1.12 1.10 1.07 1.11 1.16 1.28 1.39 1.44 1.45 1.41 1.34 1.31
0.65 0.77 0.80 0.83 0.85 0.79 0.77 0.78 0.80 0.81 0.80 0.75 0.73 0.78 0.81 0.81 0.78 0.77 0.76 0.75 0.77 0.82 0.82 0.83 0.87 0.90 0.90 0.95 0.98 1.04 1.08 1.08 1.03 1.01 1.06 1.11 1.12 1.12 1.21 1.16 1.05 1.07 1.19
0.64 0.71 0.78 0.83 0.82 0.78 0.76 0.77 0.75 0.75 0.71 0.68 0.68 0.69 0.68 0.68 0.70 0.70 0.69 0.70 0.72 0.73 0.75 0.76 0.77 0.77 0.80 0.84 0.84 0.84 0.84 0.84 0.80 0.76 0.77 0.81 0.92 0.95 0.91 0.96 0.96 0.93 0.95
0.56 0.69 0.76 0.82 0.79 0.76 0.76 0.74 0.72 0.70 0.68 0.67 0.66 0.65 0.63 0.60 0.59 0.58 0.59 0.61 0.63 0.62 0.60 0.61 0.64 0.66 0.65 0.68 0.70 0.72 0.73 0.75 0.74 0.77 0.76 0.82 0.84 0.80 0.83 0.83 0.85 0.88 0.91
0.57 0.70 0.79 0.82 0.80 0.77 0.73 0.69 0.67 0.66 0.67 0.67 0.66 0.63 0.62 0.59 0.57 0.55 0.54 0.55 0.55 0.52 0.50 0.49 0.47 0.49 0.48 0.51 0.52 0.54 0.57 0.61 0.66 0.69 0.72 0.74 0.73 0.79 0.83 0.82 0.88 0.89 0.84
0.58 0.67 0.76 0.77 0.75 0.72 0.68 0.63 0.61 0.59 0.62 0.62 0.63 0.63 0.61 0.59 0.56 0.53 0.53 0.53 0.52 0.49 0.48 0.49 0.49 0.46 0.45 0.49 0.45 0.47 0.53 0.58 0.61 0.64 0.67 0.66 0.67 0.69 0.72 0.75 0.87 0.91 0.83
0.51 0.60 0.71 0.74 0.73 0.73 0.72 0.69 0.66 0.64 0.64 0.64 0.64 0.64 0.63 0.59 0.57 0.53 0.51 0.50 0.50 0.48 0.48 0.49 0.49 0.46 0.47 0.50 0.42 0.43 0.38 0.48 0.56 0.62 0.64 0.64 0.67 0.72 0.73 0.74 0.74 0.75 0.78
0.48 0.55 0.66 0.72 0.73 0.74 0.74 0.71 0.68 0.68 0.66 0.63 0.63 0.63 0.63 0.61 0.56 0.53 0.51 0.51 0.50 0.50 0.48 0.49 0.49 0.47 0.43 0.48 0.51 0.46 0.38 0.34 0.47 0.60 0.61 0.62 0.63 0.64 0.67 0.70 0.73 0.74 0.74
0.49 0.60 0.69 0.74 0.74 0.75 0.74 0.70 0.65 0.62 0.59 0.64 0.64 0.66 0.65 0.64 0.58 0.56 0.54 0.53 0.52 0.52 0.50 0.51 0.53 0.50 0.49 0.44 0.50 0.53 0.56 0.54 0.44 0.41 0.56 0.60 0.62 0.59 0.59 0.61 0.61 0.67 0.69
0.47 0.56 0.64 0.71 0.73 0.75 0.73 0.71 0.69 0.65 0.67 0.69 0.69 0.68 0.68 0.66 0.63 0.59 0.57 0.55 0.54 0.54 0.54 0.53 0.52 0.51 0.52 0.50 0.49 0.48 0.51 0.53 0.55 0.48 0.42 0.49 0.58 0.60 0.61 0.62 0.62 0.66 0.71
0.49 0.52 0.61 0.68 0.71 0.74 0.74 0.73 0.70 0.69 0.69 0.67 0.67 0.66 0.67 0.66 0.64 0.63 0.61 0.58 0.56 0.56 0.55 0.54 0.54 0.53 0.52 0.53 0.54 0.53 0.49 0.45 0.45 0.49 0.47 0.48 0.49 0.55 0.63 0.64 0.62 0.67 0.72
Wind_Speed
5 6 7 8 8 8 9 8 8 6 5 4 4 5 6 5 5 4 4 3 3 3 3 3 3 3 3 3 3 3 3 3 3 2 2 2 2 1 2 2 3 2 2
5 6 7 8 9 9 9 9 8 7 6 5 5 4 5 5 6 5 5 4 4 3 3 3 3 3 3 3 3 4 4 4 3 3 3 3 3 3 3 3 3 4 3
5 6 7 8 9 9 9 9 8 8 6 5 5 5 4 4 4 5 6 5 5 5 4 4 4 4 4 4 5 5 5 4 4 4 4 4 4 4 5 4 4 4 4
5 6 7 7 8 9 9 10 9 9 8 7 6 5 4 3 4 4 5 6 6 6 6 5 5 5 5 5 6 6 5 5 5 5 5 5 5 5 6 6 6 6 6
4 6 6 7 7 8 9 10 10 9 9 8 7 6 5 4 4 4 4 5 7 7 7 7 7 7 7 7 7 6 6 6 6 6 6 6 6 6 7 7 8 8 7
4 5 6 6 6 7 8 8 9 10 10 9 8 8 6 5 5 5 6 6 6 8 8 7 8 8 8 8 8 8 8 8 8 8 8 8 8 8 8 8 9 9 9
3 4 4 5 6 6 7 7 8 9 9 9 8 8 7 7 6 6 6 7 7 6 6 8 9 9 9 10 10 10 10 10 10 10 9 9 9 9 9 10 10 10 10
3 3 3 4 5 6 6 7 8 9 9 9 9 9 8 8 8 7 7 6 5 6 7 7 8 9 11 12 12 13 12 12 12 11 10 10 10 11 10 11 11 12 12
2 2 2 3 4 5 6 6 7 9 9 9 9 9 9 9 9 9 7 6 5 6 7 8 9 11 13 13 14 14 14 14 14 13 12 11 11 12 13 13 13 13 14
3 2 2 2 3 4 5 6 7 8 9 9 9 9 10 10 10 9 7 7 6 6 7 10 13 14 15 16 15 17 16 15 15 15 14 14 13 13 14 15 16 16 16
4 3 2 3 3 4 5 6 7 8 9 9 10 10 10 10 10 9 8 8 8 9 10 12 14 15 15 16 16 16 16 16 16 16 17 16 16 16 16 16 17 18 18
6 5 4 4 4 4 5 6 7 8 9 10 10 11 11 11 10 9 9 10 10 12 13 14 16 19 18 16 16 14 15 17 18 18 18 19 19 20 19 18 18 19 20
7 6 6 5 5 6 6 7 8 9 9 11 12 12 12 12 12 12 12 13 14 15 15 17 17 17 16 17 16 16 16 18 21 22 22 22 22 22 22 22 22 21 21
9 9 9 8 7 8 8 8 9 10 11 13 13 14 13 13 14 14 14 15 16 16 17 17 17 17 17 17 17 17 18 19 20 22 24 27 26 25 25 25 24 24 23
11 11 11 10 11 11 11 11 11 12 13 13 14 15 15 15 15 15 16 17 17 18 19 19 19 20 20 20 21 22 22 23 25 25 25 26 27 28 26 25 25 25 25
13 13 13 13 13 12 13 13 13 13 14 15 16 16 16 16 16 17 18 18 19 20 21 21 21 22 22 22 23 24 24 25 25 26 25 25 26 26 26 26 25 25 24
15 15 14 14 14 14 14 14 14 15 16 16 17 17 18 17 18 18 19 20 21 23 23 23 23 24 24 25 25 26 27 28 28 29 29 30 28 25 26 26 27 26 26
17 17 16 16 15 15 15 15 15 16 17 17 17 18 19 19 20 20 21 23 23 24 24 25 25 25 25 26 27 28 29 29 29 29 28 28 28 28 29 27 24 25 26
18 17 17 17 16 16 16 16 17 18 18 19 19 21 20 20 21 22 23 24 25 25 25 26 26 27 27 28 28 28 29 29 29 29 29 29 28 28 28 27 25 23 23
18 18 17 17 17 17 17 18 19 19 19 20 21 21 21 22 23 24 25 25 26 26 26 26 26 27 28 28 29 29 29 28 28 28 28 27 27 26 27 27 26 23 22
17 18 18 18 18 18 18 18 19 20 21 22 21 22 23 24 25 25 26 27 27 27 27 27 27 27 28 28 28 28 28 28 28 27 26 25 25 24 24 25 25 22 22
19 19 19 19 19 19 19 20 20 21 22 22 22 23 24 25 26 27 27 27 28 28 27 28 28 28 28 28 28 27 27 27 27 26 25 24 23 22 23 22 22 23 22
21 20 21 21 20 20 20 21 21 22 23 23 24 25 26 27 27 28 28 28 29 28 29 29 29 29 29 28 27 26 25 26 25 24 24 23 22 22 22 21 21 21 21
22 22 23 22 22 22 22 23 23 23 23 24 25 26 27 28 29 29 30 30 30 30 30 30 30 29 29 28 27 27 27 25 22 22 22 21 21 20 20 20 20 20 19
25 25 25 25 25 25 25 25 25 25 25 26 27 28 28 30 31 31 32 32 31 32 31 31 30 30 29 28 27 26 25 24 23 21 20 20 20 19 19 19 20 20 19
27 27 27 27 27 27 26 26 26 26 26 27 28 30 31 32 33 34 33 33 33 33 33 32 31 30 29 28 27 26 24 23 22 21 20 20 20 19 19 20 20 21 20
Wind_Direction
41 33 27 23 18 16 13 9 6 1 350 335 312 285 270 266 272 276 280 277 282 300 318 324 335 336 339 339 342 335 328 326 326 317 306 299 294 262 223 205 197 185 155
41 33 28 25 24 20 17 16 16 12 7 360 345 315 288 276 267 269 272 270 272 283 298 316 317 324 328 328 325 316 313 307 308 307 300 292 282 261 243 226 215 206 192
37 30 25 25 24 25 24 22 22 21 18 10 7 355 328 285 283 282 262 263 269 274 289 296 306 306 309 314 314 312 306 303 303 302 297 288 278 262 245 234 226 217 211
35 24 19 21 25 29 29 31 32 31 29 24 14 10 2 343 299 289 279 264 266 270 276 284 295 297 300 302 306 304 296 292 294 295 295 287 275 264 251 241 233 225 221
19 14 15 20 30 31 32 35 37 35 33 30 27 16 6 357 339 315 294 280 270 268 273 280 284 288 290 292 297 297 292 289 289 288 287 284 276 266 258 247 238 233 229
9 10 16 22 23 29 23 30 34 32 28 28 26 18 8 358 338 317 298 290 297 270 272 279 285 287 288 287 287 289 285 284 287 289 282 276 272 266 259 251 243 237 232
1 6 14 23 20 20 23 25 24 19 17 17 14 11 7 358 345 329 318 296 278 278 279 284 287 290 288 287 285 283 283 279 281 281 281 278 267 265 259 253 247 243 240
355 3 16 20 23 22 20 22 16 12 6 7 6 3 1 356 351 346 331 322 295 273 279 291 295 294 293 290 285 282 279 277 275 279 276 273 269 263 262 257 251 247 245
339 356 3 5 20 19 16 12 7 1 359 356 355 354 352 349 345 342 338 331 318 296 284 280 293 298 302 296 285 278 276 273 271 271 271 273 270 265 261 258 255 252 250
298 316 336 342 359 357 357 356 357 359 356 355 354 351 348 344 342 341 339 330 320 312 300 293 298 301 297 295 286 282 271 269 269 267 267 270 270 269 264 261 257 254 252
270 269 295 310 326 341 348 348 352 350 351 349 347 344 343 340 338 336 332 325 320 313 306 302 302 303 301 300 297 289 264 267 269 267 267 268 268 269 266 263 259 256 254
253 255 270 284 302 314 325 330 333 334 338 340 339 336 333 332 330 326 322 320 311 308 307 307 304 302 297 298 298 292 271 267 269 269 268 268 268 267 267 263 261 258 255
249 252 260 270 285 296 310 316 323 326 330 331 329 326 324 320 317 314 312 309 310 308 304 304 307 307 301 294 294 290 285 277 272 271 270 269 268 267 263 264 260 259 257
250 252 258 266 279 289 299 305 310 314 319 322 323 322 321 317 313 309 307 307 305 306 304 302 303 304 301 296 291 287 286 284 282 275 273 267 267 267 266 264 259 257 257
252 254 258 263 273 281 288 294 301 306 312 317 319 318 316 313 308 307 305 305 303 304 302 299 298 296 296 292 287 286 285 284 283 278 276 271 269 268 264 261 259 259 257
256 256 259 264 272 278 284 288 292 298 305 309 313 313 313 311 308 306 305 302 301 301 299 298 295 294 292 291 287 286 285 283 282 280 277 275 272 269 262 259 257 258 257
258 258 259 263 270 275 280 284 288 294 300 304 307 310 310 308 307 306 304 303 300 299 297 294 292 291 289 288 286 285 285 283 281 279 276 272 272 266 263 261 259 258 256
259 256 258 261 267 271 274 279 285 291 296 300 303 306 308 306 305 305 303 301 301 299 296 294 292 290 289 288 286 286 285 284 281 279 277 272 269 266 262 263 264 260 256
257 255 256 260 265 269 272 276 282 288 293 297 300 304 304 304 304 303 303 302 301 299 296 294 291 289 288 287 286 286 285 284 282 278 277 272 268 265 261 259 259 260 257
257 255 257 260 264 269 273 278 283 287 291 295 299 300 300 302 303 304 303 302 302 299 297 295 292 290 288 287 285 285 285 283 281 278 276 272 267 264 260 259 257 258 255
256 255 257 259 264 269 274 279 284 286 290 295 296 298 300 302 303 303 303 302 302 299 297 294 292 290 289 288 287 285 284 282 280 277 275 270 267 263 260 257 252 254 252
256 257 257 259 263 269 276 280 285 287 290 292 294 297 299 301 302 302 302 301 301 299 298 296 293 291 289 288 286 285 285 282 279 275 271 267 264 261 258 256 253 251 253
257 257 257 259 263 269 276 282 286 288 290 292 293 296 298 300 301 301 301 300 299 298 297 296 294 291 290 287 284 283 285 281 279 273 268 264 261 258 257 255 253 251 251
258 260 259 259 264 270 276 281 284 286 288 291 293 296 298 299 300 300 300 299 298 297 296 295 294 291 289 286 284 280 279 279 276 271 266 260 257 256 256 254 252 249 248
260 261 261 261 264 271 274 278 282 285 288 291 293 295 297 299 299 299 299 298 297 297 296 294 292 290 287 284 281 280 277 275 270 267 264 257 254 256 256 254 252 247 246
262 263 261 261 264 269 272 275 280 284 287 290 292 294 297 298 299 298 298 296 296 295 294 293 291 289 286 283 280 276 273 270 266 263 261 258 256 258 258 256 254 249 248